DELTA 1 DEB, 7131

Orbit data source: Space-Track

DELTA 1 DEB, 7131 is space debris in SSO originally from a launch on Tue, 06 Nov 1973 UTC launched from the Air Force Western Test Range (AFWTR). Debris objects in space refer to the collection of defunct objects orbiting the Earth. Examples of debris include non-operational satellites, rocket bodies, and fragments generated from explosions, collisions, or faulty payload assembly.

Loading next visibility...
Identifier
7131, 1973-086CV
Orbit
SSO
Country
Flag of USUS
Related business
Manufacturer
Unknown
Mission
Spacecraft
Bus & Motor
Unknown
Mass
Unknown
Launch date (UTC)
1973-11-06 (53 years ago)
Launch vehicle
Unknown
Launch site
Air Force Western Test Range (AFWTR)
Object type
Payload
Rocket body
Debris
Shape & HBR
Unknown shape, 0.1 m
Radar Cross Section
Medium (>0.1 m² and <1 m²)

Expand to show TLE details & history
Last TLE update: 23 hours ago

TLE from 23 hours ago
0 DELTA 1 DEB
1 07131U 73086CV  26255.27703297  .00000487  00000-0  51714-2 0  9992
2 07131 101.9026 189.7333 0169576 111.9005  45.2488 12.15233210336001
Epoch: 2026-09-12T06:38Z
TLE epoch observation values (Epoch: 2026-09-12T06:38:55.648Z)
Latitude
20.977°
Longitude
-76.67428°
Altitude
1,521.357 km
Speed
7.148 km/s
True Right ascension
00h 57m 23s
True Declination
20° 52' 24"
Sunlit
Object was in full shadow at epoch
Visualization orbit readout
Latitude
Unknown
Longitude
Unknown
Altitude
Unknown
Speed
Unknown
Apparent Right ascension
Unknown
Apparent Declination
Unknown
Sunlit
N/A
Visualization observer readout
Local Sidereal Time
22:20:17
Azimuth
Unknown
Elevation
Unknown
Doppler factor
Unknown
Orbital elements
Apogee altitude
1,746.448 km
Perigee altitude
1,475.496 km
Semi-major axis
7,989.109 km
Eccentricity
0.01696
Inclination
101.9026°
RAAN
189.7333°
Arg. of periapsis
111.9005°
True anomaly
46.64956°
Mean anomaly
45.2488°
Eccentric anomaly
45.94709°
Mean motion
3.03945 °/min
Orbital period
118.44 mins
BSTAR
0.0051714
Loading maneuver chart data...
Computing Atmospheric mass density...
Loading historical data...
Loading historical data...
Loading historical data...
Loading historical data...
Loading historical data...
Loading historical data...
Loading historical data...

Documentation

Showing up to 5 results
|